25 de septiembre de 2022

Hora Código Tiempo Temp. Visibilidad Cielo nuboso Viento METAR/SPECI
06:50
L
10 °C 5 km 200 ft Var Var 2 kt METAR EDDS 250450Z AUTO VRB02KT 5000 SHRA BR BKN002 BKN015 BKN045 FEW///CB 10/10 Q1012 BECMG 9999 NSW SCT002 BKN015
06:20
M
10 °C 5 km - 080° 080° 2 kt METAR EDDS 250420Z AUTO 08002KT 5000 -SHRA BR FEW002 FEW///CB 10/10 Q1012 RESHRA TEMPO 3000 SHRA
05:50
L
11 °C 6 km 400 ft Var 000° 0 kt METAR EDDS 250350Z AUTO 00000KT 6000 -SHRA BKN004 BKN010 FEW///CB 11/10 Q1012 RESHRA
05:20
L
11 °C 8 km 400 ft Var Var 1 kt METAR EDDS 250320Z AUTO VRB01KT 8000 VCSH BKN004 FEW///CB 11/10 Q1012
04:50
I
11 °C 7 km 700 ft Var Var 2 kt METAR EDDS 250250Z AUTO VRB02KT 7000 SCT003 BKN007 11/10 Q1012
04:20
L
11 °C 8 km 400 ft Var Var 1 kt METAR EDDS 250220Z AUTO VRB01KT 8000 BKN004 11/10 Q1012
03:50
L
10 °C 3,6 km 300 ft Var Var 1 kt METAR EDDS 250150Z AUTO VRB01KT 9000 3600 BR BKN003 10/10 Q1012
03:20
L
10 °C 6 km 200 ft Var Var 2 kt METAR EDDS 250120Z AUTO VRB02KT 6000 BKN002 10/10 Q1012
02:50
V
10 °C 10 km+ - 260° 260° 2 kt METAR EDDS 250050Z AUTO 26002KT 9999 FEW004 SCT013 10/10 Q1012
02:20
V
11 °C 10 km+ - Var Var 1 kt METAR EDDS 250020Z AUTO VRB01KT CAVOK 11/10 Q1012
01:50
I
11 °C 3,6 km - Var Var 2 kt METAR EDDS 242350Z AUTO VRB02KT 9999 3600 BR SCT009 11/10 Q1012
01:20
V
11 °C 10 km+ - Var Var 1 kt METAR EDDS 242320Z AUTO VRB01KT 9999 SCT048 11/10 Q1013
00:50
V
11 °C 10 km+ - Var Var 2 kt METAR EDDS 242250Z AUTO VRB02KT 9999 FEW034 11/11 Q1013
00:20
V
11 °C 10 km+ - Var 000° 0 kt METAR EDDS 242220Z AUTO 00000KT 9999 FEW036 11/11 Q1012

24 de septiembre de 2022

Hora Código Tiempo Temp. Visibilidad Cielo nuboso Viento METAR/SPECI
23:50
V
11 °C 10 km+ - Var 000° 0 kt METAR EDDS 242150Z AUTO 00000KT CAVOK 11/10 Q1013
23:20
V
12 °C 10 km+ - Var Var 2 kt METAR EDDS 242120Z AUTO VRB02KT CAVOK 12/11 Q1013
22:50
V
13 °C 10 km+ - Var Var 2 kt METAR EDDS 242050Z AUTO VRB02KT 9999 VCSH FEW030 FEW///TCU 13/12 Q1012 RESHRA
22:20
V
13 °C 8 km - Var Var 1 kt METAR EDDS 242020Z AUTO VRB01KT 8000 SHRA FEW007 SCT///TCU 13/12 Q1012
21:50
V
13 °C 9 km - Var Var 2 kt METAR EDDS 241950Z AUTO VRB02KT 9000 SHRA SCT///TCU 13/12 Q1013 TEMPO 4000 BR
21:20
V
13 °C 10 km+ - 320° 320° 5 kt METAR EDDS 241920Z AUTO 32005KT 9999 -SHRA FEW///TCU 13/13 Q1013 TEMPO 4000 SHRA
20:50
V
13 °C 10 km+ - Var Var 1 kt METAR EDDS 241850Z AUTO VRB01KT 9999 -SHRA FEW///TCU 13/12 Q1013 TEMPO 4000 SHRA
20:20
V
13 °C 10 km+ - Var Var 1 kt METAR EDDS 241820Z AUTO VRB01KT 9999 VCSH FEW///TCU 13/13 Q1012 TEMPO SHRA
19:50
V
13 °C 10 km+ - Var Var 1 kt METAR EDDS 241750Z AUTO VRB01KT 9999 VCSH FEW///TCU 13/12 Q1012 NOSIG
19:20
V
13 °C 10 km+ - Var Var 2 kt METAR EDDS 241720Z AUTO VRB02KT CAVOK 13/13 Q1012 NOSIG
18:50
V
14 °C 10 km+ - Var Var 2 kt METAR EDDS 241650Z AUTO VRB02KT CAVOK 14/12 Q1012 NOSIG
18:20
V
14 °C 10 km+ - Var Var 2 kt METAR EDDS 241620Z AUTO VRB02KT CAVOK 14/12 Q1012 NOSIG
17:50
V
15 °C 10 km+ - 140° 140° 3 kt METAR EDDS 241550Z AUTO 14003KT 080V180 9999 VCSH FEW///CB 15/13 Q1012 NOSIG
17:20
V
15 °C 10 km+ - Var Var 2 kt METAR EDDS 241520Z AUTO VRB02KT 9999 -SHRA FEW038 FEW///TCU 15/13 Q1012 NOSIG
16:50
V
15 °C 10 km+ - Var Var 2 kt METAR EDDS 241450Z AUTO VRB02KT 9999 FEW011 15/13 Q1012 NOSIG
16:20
V
15 °C 10 km+ - Var Var 2 kt METAR EDDS 241420Z AUTO VRB02KT 9999 -SHRA SCT013 FEW///TCU 15/13 Q1012 RESHRA NOSIG
15:50
V
15 °C 9 km - Var Var 2 kt METAR EDDS 241350Z AUTO VRB02KT 9000 SHRA SCT014 FEW///TCU 15/13 Q1012 TEMPO NSW
15:20
V
15 °C 10 km+ - 240° 240° 3 kt METAR EDDS 241320Z AUTO 24003KT 9999 SHRA SCT016 FEW///TCU 15/13 Q1012 TEMPO NSW
14:50
V
15 °C 10 km+ - Var Var 1 kt METAR EDDS 241250Z AUTO VRB01KT 9999 FEW015 15/12 Q1013 TEMPO SHRA
14:20
V
15 °C 10 km+ - Var Var 2 kt METAR EDDS 241220Z AUTO VRB02KT 9999 VCSH FEW014 FEW///TCU 15/12 Q1013 TEMPO SHRA
13:50
V
15 °C 10 km+ - Var Var 1 kt METAR EDDS 241150Z AUTO VRB01KT 9999 -RA SCT035 15/13 Q1013 RESHRA NOSIG
13:20
V
14 °C 10 km+ 4.300 ft Var Var 2 kt METAR EDDS 241120Z AUTO VRB02KT 9999 SHRA FEW010 BKN043 FEW///TCU 14/12 Q1013 TEMPO NSW
12:50
V
14 °C 10 km+ 3.500 ft 180° 180° 3 kt METAR EDDS 241050Z AUTO 18003KT 130V260 9999 -RA BKN035 14/12 Q1013 TEMPO SHRA
12:20
V
14 °C 10 km+ 4.200 ft 210° 210° 3 kt METAR EDDS 241020Z AUTO 21003KT 130V290 9999 -DZ SCT034 BKN042 14/12 Q1013 TEMPO SHRA
11:50
V
14 °C 10 km+ - Var Var 4 kt METAR EDDS 240950Z AUTO VRB04KT 9999 -RA FEW015 14/11 Q1013
11:20
V
15 °C 10 km+ 3.500 ft Var Var 2 kt METAR EDDS 240920Z AUTO VRB02KT 9999 -SHRA BKN035 FEW///TCU 15/12 Q1013 TEMPO SHRA
10:50
V
14 °C 10 km+ 3.200 ft Var Var 2 kt METAR EDDS 240850Z AUTO VRB02KT 9999 -RA BKN032 BKN038 14/11 Q1013 NOSIG
10:20
V
12 °C 10 km+ 3.300 ft Var Var 2 kt METAR EDDS 240820Z AUTO VRB02KT 9999 -RA BKN033 12/11 Q1013 NOSIG
09:50
V
12 °C 10 km+ - Var Var 2 kt METAR EDDS 240750Z AUTO VRB02KT 9999 FEW033 12/10 Q1013 NOSIG
09:20
V
11 °C 10 km+ - Var Var 2 kt METAR EDDS 240720Z AUTO VRB02KT 9999 FEW034 11/09 Q1013 NOSIG
08:50
V
11 °C 10 km+ 3.900 ft Var Var 1 kt METAR EDDS 240650Z AUTO VRB01KT 9999 BKN039 11/09 Q1013 NOSIG
08:20
V
10 °C 10 km+ 4.100 ft Var Var 1 kt METAR EDDS 240620Z AUTO VRB01KT 9999 BKN041 10/09 Q1012 NOSIG
07:50
V
9 °C 10 km+ - Var Var 2 kt METAR EDDS 240550Z AUTO VRB02KT 9999 SCT047 09/08 Q1012 NOSIG
07:20
V
9 °C 10 km+ - 070° 070° 1 kt METAR EDDS 240520Z AUTO 07001KT CAVOK 09/08 Q1012 NOSIG
06:50
V
9 °C 10 km+ 3.800 ft 100° 100° 2 kt METAR EDDS 240450Z AUTO 10002KT 9999 BKN038 09/09 Q1012 NOSIG
06:20
V
9 °C 10 km+ 4.400 ft Var Var 1 kt METAR EDDS 240420Z AUTO VRB01KT 9999 SCT029 BKN044 09/09 Q1012 NOSIG
05:50
V
9 °C 10 km+ - 090° 090° 1 kt METAR EDDS 240350Z AUTO 09001KT 9999 SCT028 09/08 Q1012
05:20
V
9 °C 10 km+ - 030° 030° 2 kt METAR EDDS 240320Z AUTO 03002KT 9999 FEW028 09/08 Q1012
04:50
V
8 °C 10 km+ - Var Var 1 kt METAR EDDS 240250Z AUTO VRB01KT CAVOK 08/08 Q1013
04:20
V
9 °C 10 km+ - Var Var 1 kt METAR EDDS 240220Z AUTO VRB01KT CAVOK 09/08 Q1013
03:50
V
9 °C 10 km+ - 030° 030° 2 kt METAR EDDS 240150Z AUTO 03002KT 9999 FEW037 09/08 Q1013
03:20
V
9 °C 10 km+ - Var Var 1 kt METAR EDDS 240120Z AUTO VRB01KT 9999 FEW037 09/08 Q1013
02:50
V
10 °C 10 km+ - Var Var 1 kt METAR EDDS 240050Z AUTO VRB01KT CAVOK 10/08 Q1014
02:20
V
10 °C 10 km+ - Var Var 1 kt METAR EDDS 240020Z AUTO VRB01KT CAVOK 10/08 Q1014
01:50
V
10 °C 10 km+ - Var Var 1 kt METAR EDDS 232350Z AUTO VRB01KT CAVOK 10/08 Q1014
01:20
V
10 °C 10 km+ - Var Var 1 kt METAR EDDS 232320Z AUTO VRB01KT CAVOK 10/09 Q1014
00:50
V
10 °C 10 km+ - Var Var 2 kt METAR EDDS 232250Z AUTO VRB02KT CAVOK 10/09 Q1015
00:20
V
11 °C 10 km+ - 280° 280° 3 kt METAR EDDS 232220Z AUTO 28003KT CAVOK 11/09 Q1014

23 de septiembre de 2022

Hora Código Tiempo Temp. Visibilidad Cielo nuboso Viento METAR/SPECI
23:50
V
11 °C 10 km+ - Var Var 2 kt METAR EDDS 232150Z AUTO VRB02KT CAVOK 11/09 Q1015
23:20
V
11 °C 10 km+ - 320° 320° 4 kt METAR EDDS 232120Z AUTO 32004KT CAVOK 11/09 Q1015
22:50
V
12 °C 10 km+ - 260° 260° 1 kt METAR EDDS 232050Z AUTO 26001KT CAVOK 12/09 Q1015
22:20
V
11 °C 10 km+ - 280° 280° 2 kt METAR EDDS 232020Z AUTO 28002KT CAVOK 11/09 Q1015
21:50
V
12 °C 10 km+ - Var Var 1 kt METAR EDDS 231950Z AUTO VRB01KT CAVOK 12/09 Q1015 NOSIG
21:20
V
12 °C 10 km+ - Var Var 1 kt METAR EDDS 231920Z AUTO VRB01KT CAVOK 12/09 Q1015 NOSIG
20:50
V
13 °C 10 km+ - 330° 330° 3 kt METAR EDDS 231850Z AUTO 33003KT CAVOK 13/09 Q1015 NOSIG
20:20
V
13 °C 10 km+ - Var Var 2 kt METAR EDDS 231820Z AUTO VRB02KT CAVOK 13/09 Q1015 NOSIG
19:50
V
15 °C 10 km+ - 300° 300° 3 kt METAR EDDS 231750Z AUTO 30003KT 270V340 CAVOK 15/09 Q1015 NOSIG
19:20
V
15 °C 10 km+ - Var Var 1 kt METAR EDDS 231720Z AUTO VRB01KT CAVOK 15/09 Q1015 NOSIG
18:50
V
16 °C 10 km+ - 330° 330° 4 kt METAR EDDS 231650Z AUTO 33004KT CAVOK 16/09 Q1015 NOSIG
18:20
V
17 °C 10 km+ - 350° 350° 4 kt METAR EDDS 231620Z AUTO 35004KT 290V040 CAVOK 17/08 Q1015 NOSIG
17:50
V
17 °C 10 km+ - 350° 350° 5 kt METAR EDDS 231550Z AUTO 35005KT CAVOK 17/08 Q1015 NOSIG
17:20
V
17 °C 10 km+ - 020° 020° 5 kt METAR EDDS 231520Z AUTO 02005KT 330V080 CAVOK 17/08 Q1015 NOSIG
16:50
V
18 °C 10 km+ - 020° 020° 5 kt METAR EDDS 231450Z AUTO 02005KT 330V080 CAVOK 18/08 Q1015 NOSIG
16:20
V
18 °C 10 km+ - 020° 020° 5 kt METAR EDDS 231420Z AUTO 02005KT 320V090 9999 FEW049 18/08 Q1016 NOSIG
15:50
V
17 °C 10 km+ - 050° 050° 4 kt METAR EDDS 231350Z AUTO 05004KT 340V110 9999 FEW049 17/08 Q1016 NOSIG
15:20
V
18 °C 10 km+ 4.600 ft 020° 020° 4 kt METAR EDDS 231320Z AUTO 02004KT 340V100 9999 BKN046 18/09 Q1016 NOSIG
14:50
V
18 °C 10 km+ 4.600 ft 070° 070° 3 kt METAR EDDS 231250Z AUTO 07003KT 030V130 9999 BKN046 18/09 Q1016 NOSIG
14:20
V
18 °C 10 km+ - 120° 120° 4 kt METAR EDDS 231220Z AUTO 12004KT 060V210 9999 SCT045 18/08 Q1016 NOSIG
13:50
V
17 °C 10 km+ - Var Var 2 kt METAR EDDS 231150Z AUTO VRB02KT 9999 SCT048 17/08 Q1017 NOSIG
13:20
V
17 °C 10 km+ 4.400 ft Var Var 2 kt METAR EDDS 231120Z AUTO VRB02KT 9999 BKN044 17/09 Q1017 NOSIG
12:50
V
17 °C 10 km+ - Var Var 2 kt METAR EDDS 231050Z AUTO VRB02KT 9999 FEW045 17/08 Q1017 NOSIG
12:20
V
16 °C 10 km+ - Var Var 2 kt METAR EDDS 231020Z AUTO VRB02KT 9999 FEW048 16/07 Q1017 NOSIG
11:50
V
15 °C 10 km+ 4.800 ft Var Var 2 kt METAR EDDS 230950Z AUTO VRB02KT 9999 BKN048 15/07 Q1018 NOSIG
11:20
V
13 °C 10 km+ - Var Var 2 kt METAR EDDS 230920Z AUTO VRB02KT 9999 FEW045 13/06 Q1018 NOSIG
10:50
V
12 °C 10 km+ - 110° 110° 3 kt METAR EDDS 230850Z AUTO 11003KT 050V180 CAVOK 12/07 Q1018 NOSIG
10:20
V
12 °C 10 km+ - Var Var 3 kt METAR EDDS 230820Z AUTO VRB03KT CAVOK 12/07 Q1018 NOSIG
09:50
V
11 °C 10 km+ - Var Var 2 kt METAR EDDS 230750Z AUTO VRB02KT CAVOK 11/06 Q1018 NOSIG
09:20
V
9 °C 10 km+ - Var Var 2 kt METAR EDDS 230720Z AUTO VRB02KT CAVOK 09/06 Q1018 NOSIG
08:50
V
8 °C 10 km+ - Var Var 1 kt METAR EDDS 230650Z AUTO VRB01KT CAVOK 08/05 Q1018 NOSIG
08:20
V
6 °C 10 km+ - Var Var 1 kt METAR EDDS 230620Z AUTO VRB01KT CAVOK 06/04 Q1018 NOSIG
07:50
V
5 °C 10 km+ - 080° 080° 2 kt METAR EDDS 230550Z AUTO 08002KT CAVOK 05/03 Q1018 NOSIG
07:20
V
3 °C 10 km+ - 080° 080° 2 kt METAR EDDS 230520Z AUTO 08002KT CAVOK 03/01 Q1018 NOSIG
06:50
V
3 °C 10 km+ - 160° 160° 1 kt METAR EDDS 230450Z AUTO 16001KT CAVOK 03/02 Q1018 NOSIG
06:20
V
3 °C 10 km+ - 140° 140° 2 kt METAR EDDS 230420Z AUTO 14002KT CAVOK 03/03 Q1018 NOSIG
05:50
V
4 °C 10 km+ - 280° 280° 1 kt METAR EDDS 230350Z AUTO 28001KT CAVOK 04/03 Q1018
05:20
V
4 °C 10 km+ - Var Var 1 kt METAR EDDS 230320Z AUTO VRB01KT CAVOK 04/02 Q1018
04:50
V
4 °C 10 km+ - 280° 280° 2 kt METAR EDDS 230250Z AUTO 28002KT CAVOK 04/02 Q1019
04:20
V
4 °C 10 km+ - 270° 270° 1 kt METAR EDDS 230220Z AUTO 27001KT CAVOK 04/03 Q1019
03:50
V
4 °C 10 km+ - 280° 280° 2 kt METAR EDDS 230150Z AUTO 28002KT CAVOK 04/02 Q1019
03:20
V
4 °C 10 km+ - 280° 280° 2 kt METAR EDDS 230120Z AUTO 28002KT CAVOK 04/02 Q1019
02:50
V
5 °C 10 km+ - 290° 290° 3 kt METAR EDDS 230050Z AUTO 29003KT CAVOK 05/03 Q1019
02:20
V
4 °C 10 km+ - 280° 280° 2 kt METAR EDDS 230020Z AUTO 28002KT CAVOK 04/02 Q1019
Datos más antiguos

Nosotros y terceros seguimos tu comportamiento en Internet en nuestro sitio web con cookies. Si continúas, asumimos que estás de acuerdo con nuestra política de cookies. Más información